Regional Weather Roundup
Issued by NWS Charleston, SC

Current Version | Previous Version | Text Only | Print | Product List | Glossary Off
Versions: 1 2 3 4 5 6 7 8 9 10 11 12 13 14 15 16 17 18 19 20 21 22 23 24 25 26 27 28 29 30 31 32 33 34 35 36 37 38 39 40 41 42 43 44 45 46 47 48 49 50

000
ASUS42 KCHS 222010
RWRCHS
REGIONAL WEATHER ROUNDUP
NATIONAL WEATHER SERVICE CHARLESTON SC
400 PM EDT WED OCT 22 2014

NOTE: "FAIR" INDICATES FEW OR NO CLOUDS BELOW 12,000 FEET WITH NO
SIGNIFICANT WEATHER AND/OR OBSTRUCTIONS TO VISIBILITY.

NOT ALL STATIONS ARE QUALITY CONTROLLED BY THE NATIONAL
WEATHER SERVICE. USE DATA WITH CAUTION...ESPECIALLY
DEWPOINT OBSERVATIONS.

SCZ027-030-031-034>040-042>050-222100-
...SOUTH CAROLINA...

CITY           SKY/WX    TMP DP  RH WIND       PRES   REMARKS
N CHARLESTON   SUNNY     70  41  34 NW14G21   30.00S
WATERFRONT PRK   N/A     66 N/A N/A N13         N/A
FORT JOHNSON   NOT AVBL
JOHNS ISLAND   CLEAR     70  45  40 NW9G17    30.00S
PINOPOLIS      NOT AVBL
MONCKS CORNER  FAIR      68  48  49 NW8       30.00F
SUMMERVILLE    FAIR      68  45  42 N13       30.01F
BEAUFORT MCAS  SUNNY     70  42  36 NW10      30.01S
BEAUFORT ARPT  FAIR      70  45  40 NW9       30.00F
HILTON HEAD IS SUNNY     70  45  40 N9        30.02F
GEORGETOWN     NOT AVBL
WALTERBORO     CLEAR     70  34  26 N9        30.01F
ORANGEBURG     SUNNY     68  40  35 N8        30.02F
BARNWELL       FAIR      70  39  32 N9        30.03S
AIKEN          FAIR      68  45  42 N12       30.07S
MANNING        FAIR      68  43  40 NW8       30.01S
KINGSTREE      NOT AVBL
COLUMBIA       MOSUNNY   69  37  30 N8        30.02F
SUMTER         SUNNY     68  42  40 N10       30.00S
FLORENCE       SUNNY     69  41  36 NW8       29.99S
MYRTLE BEACH   SUNNY     68  41  37 N15       29.98S
N MYRTLE BEACH SUNNY     69  43  38 NW12G20   29.96S

$$

GAZ063-065-086>088-099>101-113>116-118-119-134-136>141-150-222100-
...GEORGIA...

CITY           SKY/WX    TMP DP  RH WIND       PRES   REMARKS
SAVANNAH ARPT  SUNNY     72  42  34 N9        30.01F
HUNTER AAF     SUNNY     71  44  38 NW9       29.99F
FORT STEWART   SUNNY     71  43  36 N8        30.00F
STATESBORO     NOT AVBL
SYLVANIA       CLEAR     75  47  36 N9        30.03S
CLAXTON        FAIR      72  43  35 N8        30.02F
THOMSON        SUNNY     69  47  45 N5        30.08F
AUGUSTA-BUSH   SUNNY     71  38  29 NE10      30.02F
AUGUSTA-DANIEL SUNNY     70  38  31 N10       30.04F
SWAINSBORO     FAIR      73  41  31 MISG      30.03S
VIDALIA        SUNNY     70  45  40 NE7       30.03S
ALMA           SUNNY     72  44  36 NE5       30.02S
WAYCROSS       SUNNY     75  48  38 N5        30.01S
JESUP          FAIR      73  45  35 NE5       30.02S
BRUNSWICK      SUNNY     73  45  35 N5        30.01S
SAINT SIMONS   SUNNY     69  51  52 E13       30.00F

$$

SCZ027-028-034-036>038-045-046-048>050-GAZ119-141-222100-
...LAKE AND SUPPLEMENTAL COASTAL OBSERVATIONS...

STATION/POSITION TIME  TEMP    WIND        PRES    WAVE   SWELL
                       AIR SEA DIR/SP/G            HT/PER HT/PER/DIR
                 (UTC) (F)     (DEG/KT/KT) (MB)    (FT/S) (FT/S/D)
UPR LAKE MARION  NOT AVBL
WINYAH BAY       1900   65     310/  8     1015.0S
LAKE MURRAY      1900   66     330/  3/ 12 1016.3F
ACE BASIN NERRS  1900   69     320/  4     1016.0S
FORT PULASKI     2000   67     350/  8/ 11 1016.3S
SAPELO ISLAND    NOT AVBL

$$

ANZ835-935-AMZ111-154-330-350-352-354-374-450-454-472-222100-
...C-MAN AND BUOY OBSERVATIONS...

STATION/POSITION TIME  TEMP    WIND        PRES    WAVE   SWELL
                       AIR SEA DIR/SP/G            HT/PER HT/PER/DIR
                 (UTC) (F)     (DEG/KT/KT) (MB)    (FT/S) (FT/S/D)
FOLLY BEACH CMAN 1900   67     340/  5/  8 1016.4F
BUOY 41004       2000   64 79  330/  8/ 12 1015.3S   4/ 6   3/ 6
BUOY 41008       2000   66 76  350/ 10/ 12 1016.4F   3/ 6   3/ 50/ 6
5E ST. MARYS GA  2000      77                N/A     3/ 5
FRYING PAN BUOY  2000   63 75  310/ 16/ 19 1014.7F   3/ 5   2/130/11
BUOY 41025       2000   62     300/ 25/ 31 1010.1R   5/ 5   2/ 60/10
CAPE LOOKOUT NC  1900   62     320/ 17/ 20 1012.3R
BUOY 41002       1921   73 79  300/ 21/ 27 1011.3R   6/ 6   2/100/10
BUOY 41010       2000   79 80  320/ 12/ 14 1012.9F   3/ 8   2/ 60/ 8
BUOY 41012       NOT AVBL
ST AUGUSTINE FL  2000   70      10/ 16/ 18 1015.7F
CAPERS NEARSHORE 1900   66     340/ 12/ 14   N/A
FRIPP NEARSHORE  NOT AVBL


$$



USA.gov is the U.S. government's official web portal to all federal, state and local government web resources and services.